Weather History for KMBS - February, 2013

Change the Weather History Date:

Thursday, February 7, 2013

  Actual Average Record
Temperature  
Mean Temperature 28 °F 23 °F  
Max Temperature 32 °F 30 °F 48 °F (2009)
Min Temperature 24 °F 16 °F -2 °F (2007)
Degree Days  
Heating Degree Days 37    
Month to date heating degree days  
Since 1 July heating degree days  
Cooling Degree Days 0    
Month to date cooling degree days  
Year to date cooling degree days  
Moisture  
Dew Point 22 °F    
Average Humidity 80    
Maximum Humidity 88    
Minimum Humidity 63    
Precipitation  
Precipitation 0.10 in 0.05 in 0.10 in (2013)
Month to date precipitation 0.31  
Year to date precipitation 2.02  
Snow  
Snow 0.00 in - - ()
Month to date snowfall  
Since 1 July snowfall  
Snow Depth -    
Sea Level Pressure  
Sea Level Pressure 30.13 in    
Wind  
Wind Speed 9 mph (ESE)    
Max Wind Speed 15 mph    
Max Gust Speed -    
Visibility 4 miles    
Events Fog , Snow    
T = Trace of Precipitation, MM = Missing Value Source: NWS Daily Summary

Daily Weather History Graph

Daily Weather History Graph

Search for Another Location

Airport or City:

Trip Planner

Search our weather history database for the weather conditions in past years. The results will help you decide how hot, cold, wet, or windy it might be!

Date:

Astronomy

Feb. 07, 2013 Rise Set
Actual Time 7:45 AM EST 5:56 PM EST
Civil Twilight 7:15 AM EST 6:26 PM EST
Nautical Twilight 6:41 AM EST 7:00 PM EST
Astronomical Twilight 6:08 AM EST 7:33 PM EST
Moon 5:26 AM EST (2/7) 3:17 PM EST (2/7)
Length of Visible Light 11h 10m
Length of Day
10h 11m
Waning Crescent, 9% of the Moon is Illuminated
Feb 7
Waning Crescent
Feb 10
New
Feb 17
First Quarter
Feb 25
Full
Mar 4
Last Quarter

Hourly Weather History & Observations

Time (EST) Temp. Windchill Dew Point Humidity Pressure Visibility Wind Dir Wind Speed Gust Speed Precip Events Conditions
12:53 AM 27.0 °F 19.5 °F 17.1 °F 66% 30.27 in 10.0 mi South 6.9 mph - 0.00 in   Overcast
1:53 AM 27.0 °F 19.5 °F 17.1 °F 66% 30.28 in 10.0 mi South 6.9 mph - N/A   Overcast
2:53 AM 27.0 °F 16.7 °F 16.0 °F 63% 30.25 in 10.0 mi SSE 11.5 mph - N/A   Overcast
3:24 AM 26.6 °F 15.2 °F 17.6 °F 69% 30.23 in 2.0 mi South 13.8 mph - 0.00 in Snow Light Snow
3:53 AM 25.0 °F 15.5 °F 19.0 °F 78% 30.25 in 3.0 mi South 9.2 mph - 0.00 in Snow Light Snow
4:06 AM 24.8 °F 14.6 °F 19.4 °F 80% 30.21 in 2.0 mi South 10.4 mph - 0.00 in Snow Light Snow
4:14 AM 24.8 °F 14.0 °F 19.4 °F 80% 30.21 in 1.8 mi South 11.5 mph - 0.00 in Snow Light Snow
4:29 AM 24.8 °F 15.3 °F 19.4 °F 80% 30.21 in 2.0 mi South 9.2 mph - 0.00 in Snow Light Snow
4:45 AM 24.8 °F 15.3 °F 19.4 °F 80% 30.21 in 3.0 mi South 9.2 mph - 0.00 in Snow Light Snow
4:53 AM 25.0 °F 16.3 °F 19.9 °F 81% 30.23 in 4.0 mi South 8.1 mph - 0.00 in Snow Light Snow
5:06 AM 24.8 °F 17.9 °F 21.2 °F 86% 30.20 in 2.0 mi SSE 5.8 mph - 0.00 in Snow Light Snow
5:46 AM 24.8 °F 19.1 °F 21.2 °F 86% 30.20 in 3.0 mi SSE 4.6 mph - 0.00 in Snow Light Snow
5:53 AM 25.0 °F 20.7 °F 21.0 °F 85% 30.23 in 2.0 mi SSE 3.5 mph - 0.00 in Snow Light Snow
6:08 AM 24.8 °F 20.5 °F 21.2 °F 86% 30.19 in 1.8 mi SSE 3.5 mph - 0.00 in Snow Light Snow
6:40 AM 24.8 °F 17.9 °F 21.2 °F 86% 30.19 in 3.0 mi ESE 5.8 mph - 0.01 in Snow Light Snow
6:50 AM 24.8 °F 19.1 °F 21.2 °F 86% 30.19 in 6.0 mi ESE 4.6 mph - 0.01 in   Overcast
6:53 AM 25.0 °F 19.3 °F 21.9 °F 88% 30.22 in 7.0 mi ESE 4.6 mph - 0.01 in   Overcast
7:23 AM 26.6 °F - 21.2 °F 80% 30.20 in 2.0 mi Calm Calm - 0.00 in Snow Light Snow
7:53 AM 26.1 °F 19.4 °F 21.9 °F 84% 30.23 in 2.5 mi East 5.8 mph - 0.00 in Snow Light Snow
8:05 AM 26.6 °F 19.1 °F 21.2 °F 80% 30.20 in 6.0 mi ENE 6.9 mph - 0.00 in   Overcast
8:53 AM 26.1 °F 18.4 °F 21.9 °F 84% 30.24 in 7.0 mi East 6.9 mph - 0.00 in   Overcast
9:53 AM 28.0 °F 20.8 °F 19.9 °F 72% 30.22 in 10.0 mi East 6.9 mph - N/A   Overcast
10:53 AM 28.0 °F 20.0 °F 21.0 °F 75% 30.22 in 10.0 mi East 8.1 mph - N/A   Overcast
11:53 AM 28.9 °F 21.1 °F 21.9 °F 75% 30.20 in 10.0 mi East 8.1 mph - N/A   Overcast
12:53 PM 30.0 °F 21.1 °F 23.0 °F 75% 30.16 in 10.0 mi East 10.4 mph - N/A   Overcast
1:53 PM 30.9 °F 22.2 °F 23.0 °F 72% 30.13 in 10.0 mi East 10.4 mph - N/A   Overcast
2:53 PM 32.0 °F 22.5 °F 24.1 °F 73% 30.09 in 10.0 mi East 12.7 mph - N/A   Overcast
3:53 PM 32.0 °F 23.0 °F 25.0 °F 75% 30.07 in 10.0 mi ENE 11.5 mph - N/A   Overcast
4:53 PM 32.0 °F 22.5 °F 26.1 °F 79% 30.05 in 9.0 mi ENE 12.7 mph - N/A   Overcast
5:53 PM 30.9 °F 21.7 °F 25.0 °F 79% 30.04 in 6.0 mi ENE 11.5 mph - 0.00 in   Haze
6:30 PM 30.2 °F 20.2 °F 24.8 °F 80% 30.01 in 1.0 mi ENE 12.7 mph - 0.00 in Snow Light Snow
6:44 PM 30.2 °F 20.2 °F 26.6 °F 86% 30.01 in 2.0 mi East 12.7 mph - 0.00 in Snow Light Snow
6:53 PM 30.9 °F 20.7 °F 26.1 °F 82% 30.03 in 5.0 mi ENE 13.8 mph - 0.00 in   Haze
7:10 PM 30.2 °F 19.8 °F 24.8 °F 80% 29.99 in 1.8 mi ENE 13.8 mph - 0.00 in Snow Light Snow
7:17 PM 30.2 °F 19.3 °F 24.8 °F 80% 30.00 in 1.8 mi East 15.0 mph - 0.00 in Snow Light Snow
7:37 PM 28.4 °F 17.0 °F 24.8 °F 86% 29.99 in 2.0 mi East 15.0 mph - 0.00 in Snow Light Snow
7:53 PM 28.9 °F 17.7 °F 25.0 °F 85% 30.02 in 1.8 mi East 15.0 mph - 0.00 in Snow Light Snow
8:50 PM 28.4 °F 18.5 °F 24.8 °F 86% 29.98 in 0.8 mi ENE 11.5 mph - 0.01 in Snow Light Snow
8:51 PM 28.0 °F 18.1 °F 25.0 °F 88% 30.01 in 0.8 mi ENE 11.5 mph - 0.01 in Snow Light Snow
9:53 PM 28.0 °F 18.1 °F 25.0 °F 88% 30.00 in 0.8 mi ENE 11.5 mph - 0.00 in Snow Light Snow
10:18 PM 28.4 °F 18.5 °F 24.8 °F 86% 29.97 in 0.8 mi East 11.5 mph - 0.00 in Snow Light Snow
10:33 PM 28.4 °F 18.5 °F 24.8 °F 86% 29.97 in 0.5 mi East 11.5 mph - 0.01 in Fog , Snow Snow
10:53 PM 28.0 °F 18.1 °F 25.0 °F 88% 29.99 in 0.5 mi East 11.5 mph - 0.03 in Fog , Snow Snow
11:53 PM 28.0 °F 18.6 °F 25.0 °F 88% 29.96 in 0.5 mi ENE 10.4 mph - 0.05 in Fog , Snow Snow